Back to catalog

KUIPER-00357

AliveCommunicationsLEO
NORAD 68866·PAYLOAD·🇺🇸 United States

Launched Apr 28, 2026 from Cape Canaveral Space Force Station

Loading…

Next Passes (next 24 hours)

TLE

FreshSource: CelesTrak SupGP

Epoch: Sep 14, 2026, 14:57 UTC

1 68866C 26095C   26257.62332176  .00001295  00000+0  16952-3 0  2577
2 68866  51.9007 207.6821 0001054  48.4561 346.6330 14.79924812    15

Track KUIPER-00357 in real time with AllMySat

Download on the App Store